Portada
METAR-TAF:

METAR-TAF

Aeroports :

Eagle River Union Airport

Eagle River, Wisconsin, Estats Units d'Amèrica

latitud: 45-55-54N, longitud: 089-16-09W, altitud: 501 m

Observació

L'informe es va fer fa 20 minuts, a les 16:15 UTC
Vent 8 kt del Sud-Oest
Temperatura 13°C
Humitat 54%
Pressió 1026 hPa
Visibilitat: 16.1 km
Cel clar

METAR: KEGV 221615Z AUTO 22008KT 10SM CLR 13/04 A3029 RMK AO2 T01290040

Hora: 11:35 (16:35 UTC)


TAF: manca

Observacions i pronòstics meteorològics de més de 4000 aeroports (METAR i TAF).

Les estacions disponibles són els punts grocs i vermells al mapa.

Posi el ratolí al punt desitjat per veure el nom de l'estació.

Feu clic per veure les observacions i els pronòstics meteorològics.

Per canviar el mapa: feu clic els botons verds amb una creu de color negre per apropar; al botó verd amb un guió per allunyar la imatge; o en les fletxes verdes per a mapes adjacents.


METAR-TAF: